Year,Month,Day,Hour,Minute,Value (Times are PST for temperature in C)
2012,06,24,00,00,9.50
2012,06,24,00,01,9.50
2012,06,24,00,02,9.50
2012,06,24,00,03,9.50
2012,06,24,00,04,9.40
2012,06,24,00,05,9.40
2012,06,24,00,06,9.40
2012,06,24,00,07,9.40
2012,06,24,00,08,9.40
2012,06,24,00,09,9.30
2012,06,24,00,10,9.30
2012,06,24,00,11,9.30
2012,06,24,00,12,9.30
2012,06,24,00,13,9.30
2012,06,24,00,14,9.30
2012,06,24,00,15,9.30
2012,06,24,00,16,9.30
2012,06,24,00,17,9.30
2012,06,24,00,18,9.30
2012,06,24,00,19,9.30
2012,06,24,00,20,9.30
2012,06,24,00,21,9.30
2012,06,24,00,22,9.30
2012,06,24,00,23,9.30
2012,06,24,00,24,9.30
2012,06,24,00,25,9.30
2012,06,24,00,26,9.30
2012,06,24,00,27,9.30
2012,06,24,00,28,9.30
2012,06,24,00,29,9.20
2012,06,24,00,30,9.20
2012,06,24,00,31,9.20
2012,06,24,00,32,9.20
2012,06,24,00,33,9.20
2012,06,24,00,34,9.10
2012,06,24,00,35,9.10
2012,06,24,00,36,9.10
2012,06,24,00,37,9.10
2012,06,24,00,38,9.00
2012,06,24,00,39,9.00
2012,06,24,00,40,9.00
2012,06,24,00,41,8.90
2012,06,24,00,42,8.90
2012,06,24,00,43,8.90
2012,06,24,00,44,8.90
2012,06,24,00,45,8.90
2012,06,24,00,46,8.90
2012,06,24,00,47,8.80
2012,06,24,00,48,8.80
2012,06,24,00,49,8.80
2012,06,24,00,50,8.80
2012,06,24,00,51,8.80
2012,06,24,00,52,8.80
2012,06,24,00,53,8.80
2012,06,24,00,54,8.80
2012,06,24,00,55,8.80
2012,06,24,00,56,8.80
2012,06,24,00,57,8.80
2012,06,24,00,58,8.80
2012,06,24,00,59,8.70
2012,06,24,01,00,8.80
2012,06,24,01,01,8.70
2012,06,24,01,02,8.70
2012,06,24,01,03,8.70
2012,06,24,01,04,8.70
2012,06,24,01,05,8.70
2012,06,24,01,06,8.80
2012,06,24,01,07,8.80
2012,06,24,01,08,8.80
2012,06,24,01,09,8.80
2012,06,24,01,10,8.80
2012,06,24,01,11,8.80
2012,06,24,01,12,8.80
2012,06,24,01,13,8.80
2012,06,24,01,14,8.80
2012,06,24,01,15,8.80
2012,06,24,01,16,8.70
2012,06,24,01,17,8.70
2012,06,24,01,18,8.70
2012,06,24,01,19,8.70
2012,06,24,01,20,8.70
2012,06,24,01,21,8.70
2012,06,24,01,22,8.70
2012,06,24,01,23,8.70
2012,06,24,01,24,8.70
2012,06,24,01,25,8.70
2012,06,24,01,26,8.70
2012,06,24,01,27,8.60
2012,06,24,01,28,8.60
2012,06,24,01,29,8.60
2012,06,24,01,30,8.60
2012,06,24,01,31,8.60
2012,06,24,01,32,8.50
2012,06,24,01,33,8.50
2012,06,24,01,34,8.50
2012,06,24,01,35,8.40
2012,06,24,01,36,8.40
2012,06,24,01,37,8.40
2012,06,24,01,38,8.40
2012,06,24,01,39,8.40
2012,06,24,01,40,8.40
2012,06,24,01,41,8.30
2012,06,24,01,42,8.30
2012,06,24,01,43,8.30
2012,06,24,01,44,8.30
2012,06,24,01,45,8.30
2012,06,24,01,46,8.30
2012,06,24,01,47,8.30
2012,06,24,01,48,8.30
2012,06,24,01,49,8.30
2012,06,24,01,50,8.20
2012,06,24,01,51,8.20
2012,06,24,01,52,8.20
2012,06,24,01,53,8.20
2012,06,24,01,54,8.20
2012,06,24,01,55,8.10
2012,06,24,01,56,8.10
2012,06,24,01,57,8.10
2012,06,24,01,58,8.10
2012,06,24,01,59,8.10
2012,06,24,02,00,8.00
2012,06,24,02,01,8.00
2012,06,24,02,02,8.00
2012,06,24,02,03,8.00
2012,06,24,02,04,7.90
2012,06,24,02,05,7.90
2012,06,24,02,06,7.90
2012,06,24,02,07,7.90
2012,06,24,02,08,7.80
2012,06,24,02,09,7.80
2012,06,24,02,10,7.90
2012,06,24,02,11,7.90
2012,06,24,02,12,7.90
2012,06,24,02,13,7.90
2012,06,24,02,14,7.90
2012,06,24,02,15,7.90
2012,06,24,02,16,7.90
2012,06,24,02,17,7.90
2012,06,24,02,18,7.80
2012,06,24,02,19,7.90
2012,06,24,02,20,7.90
2012,06,24,02,21,7.90
2012,06,24,02,22,7.80
2012,06,24,02,23,7.80
2012,06,24,02,24,7.80
2012,06,24,02,25,7.80
2012,06,24,02,26,7.80
2012,06,24,02,27,7.80
2012,06,24,02,28,7.70
2012,06,24,02,29,7.70
2012,06,24,02,30,7.70
2012,06,24,02,31,7.70
2012,06,24,02,32,7.70
2012,06,24,02,33,7.80
2012,06,24,02,34,7.80
2012,06,24,02,35,7.80
2012,06,24,02,36,7.80
2012,06,24,02,37,7.70
2012,06,24,02,38,7.70
2012,06,24,02,39,7.70
2012,06,24,02,40,7.70
2012,06,24,02,41,7.70
2012,06,24,02,42,7.70
2012,06,24,02,43,7.70
2012,06,24,02,44,7.70
2012,06,24,02,45,7.70
2012,06,24,02,46,7.60
2012,06,24,02,47,7.60
2012,06,24,02,48,7.60
2012,06,24,02,49,7.60
2012,06,24,02,50,7.60
2012,06,24,02,51,7.60
2012,06,24,02,52,7.60
2012,06,24,02,53,7.60
2012,06,24,02,54,7.60
2012,06,24,02,55,7.60
2012,06,24,02,56,7.50
2012,06,24,02,57,7.50
2012,06,24,02,58,7.50
2012,06,24,02,59,7.40
2012,06,24,03,00,7.40
2012,06,24,03,01,7.40
2012,06,24,03,02,7.40
2012,06,24,03,06,7.50
2012,06,24,03,07,7.50
2012,06,24,03,08,7.50
2012,06,24,03,09,7.50
2012,06,24,03,10,7.50
2012,06,24,03,11,7.50
2012,06,24,03,12,7.40
2012,06,24,03,13,7.40
2012,06,24,03,14,7.40
2012,06,24,03,15,7.40
2012,06,24,03,16,7.30
2012,06,24,03,17,7.30
2012,06,24,03,18,7.30
2012,06,24,03,19,7.30
2012,06,24,03,20,7.20
2012,06,24,03,21,7.20
2012,06,24,03,22,7.20
2012,06,24,03,23,7.20
2012,06,24,03,24,7.20
2012,06,24,03,25,7.20
2012,06,24,03,26,7.20
2012,06,24,03,27,7.20
2012,06,24,03,28,7.20
2012,06,24,03,29,7.20
2012,06,24,03,30,7.20
2012,06,24,03,31,7.20
2012,06,24,03,32,7.20
2012,06,24,03,33,7.20
2012,06,24,03,34,7.20
2012,06,24,03,35,7.20
2012,06,24,03,36,7.20
2012,06,24,03,37,7.30
2012,06,24,03,38,7.30
2012,06,24,03,39,7.30
2012,06,24,03,40,7.30
2012,06,24,03,41,7.30
2012,06,24,03,42,7.30
2012,06,24,03,43,7.30
2012,06,24,03,44,7.30
2012,06,24,03,45,7.30
2012,06,24,03,46,7.30
2012,06,24,03,47,7.30
2012,06,24,03,48,7.30
2012,06,24,03,49,7.30
2012,06,24,03,50,7.30
2012,06,24,03,51,7.40
2012,06,24,03,52,7.40
2012,06,24,03,53,7.40
2012,06,24,03,54,7.40
2012,06,24,03,55,7.40
2012,06,24,03,56,7.40
2012,06,24,03,57,7.40
2012,06,24,03,58,7.40
2012,06,24,03,59,7.40
2012,06,24,04,00,7.40
2012,06,24,04,01,7.40
2012,06,24,04,02,7.40
2012,06,24,04,03,7.40
2012,06,24,04,04,7.40
2012,06,24,04,05,7.40
2012,06,24,04,06,7.40
2012,06,24,04,07,7.40
2012,06,24,04,08,7.40
2012,06,24,04,09,7.40
2012,06,24,04,10,7.40
2012,06,24,04,11,7.40
2012,06,24,04,12,7.30
2012,06,24,04,13,7.30
2012,06,24,04,14,7.30
2012,06,24,04,15,7.20
2012,06,24,04,16,7.20
2012,06,24,04,17,7.20
2012,06,24,04,18,7.20
2012,06,24,04,19,7.20
2012,06,24,04,20,7.20
2012,06,24,04,21,7.20
2012,06,24,04,22,7.20
2012,06,24,04,23,7.20
2012,06,24,04,24,7.20
2012,06,24,04,25,7.20
2012,06,24,04,26,7.20
2012,06,24,04,27,7.20
2012,06,24,04,28,7.20
2012,06,24,04,29,7.20
2012,06,24,04,30,7.20
2012,06,24,04,31,7.20
2012,06,24,04,32,7.10
2012,06,24,04,33,7.10
2012,06,24,04,34,7.10
2012,06,24,04,35,7.10
2012,06,24,04,36,7.10
2012,06,24,04,37,7.10
2012,06,24,04,38,7.10
2012,06,24,04,39,7.10
2012,06,24,04,40,7.10
2012,06,24,04,41,7.10
2012,06,24,04,42,7.10
2012,06,24,04,43,7.10
2012,06,24,04,44,7.10
2012,06,24,04,45,7.10
2012,06,24,04,46,7.10
2012,06,24,04,47,7.10
2012,06,24,04,48,7.10
2012,06,24,04,49,7.20
2012,06,24,04,50,7.20
2012,06,24,04,51,7.20
2012,06,24,04,52,7.20
2012,06,24,04,53,7.20
2012,06,24,04,54,7.20
2012,06,24,04,55,7.20
2012,06,24,04,56,7.20
2012,06,24,04,57,7.20
2012,06,24,04,58,7.20
2012,06,24,04,59,7.30
2012,06,24,05,00,7.30
2012,06,24,05,01,7.30
2012,06,24,05,02,7.30
2012,06,24,05,03,7.30
2012,06,24,05,04,7.30
2012,06,24,05,05,7.30
2012,06,24,05,06,7.30
2012,06,24,05,07,7.30
2012,06,24,05,08,7.30
2012,06,24,05,09,7.30
2012,06,24,05,10,7.20
2012,06,24,05,11,7.20
2012,06,24,05,12,7.20
2012,06,24,05,13,7.20
2012,06,24,05,14,7.20
2012,06,24,05,15,7.20
2012,06,24,05,16,7.20
2012,06,24,05,17,7.20
2012,06,24,05,18,7.20
2012,06,24,05,19,7.20
2012,06,24,05,20,7.10
2012,06,24,05,21,7.10
2012,06,24,05,22,7.10
2012,06,24,05,23,7.10
2012,06,24,05,24,7.10
2012,06,24,05,25,7.00
2012,06,24,05,26,7.00
2012,06,24,05,27,7.00
2012,06,24,05,28,6.90
2012,06,24,05,29,6.90
2012,06,24,05,30,7.00
2012,06,24,05,31,7.00
2012,06,24,05,32,7.00
2012,06,24,05,33,7.00
2012,06,24,05,34,7.00
2012,06,24,05,35,7.00
2012,06,24,05,36,7.00
2012,06,24,05,37,7.00
2012,06,24,05,38,7.00
2012,06,24,05,39,7.00
2012,06,24,05,40,7.00
2012,06,24,05,41,7.00
2012,06,24,05,42,7.10
2012,06,24,05,43,7.10
2012,06,24,05,44,7.10
2012,06,24,05,45,7.10
2012,06,24,05,46,7.10
2012,06,24,05,47,7.10
2012,06,24,05,48,7.20
2012,06,24,05,49,7.20
2012,06,24,05,50,7.20
2012,06,24,05,51,7.20
2012,06,24,05,52,7.20
2012,06,24,05,53,7.20
2012,06,24,05,54,7.20
2012,06,24,05,55,7.20
2012,06,24,05,56,7.20
2012,06,24,05,57,7.20
2012,06,24,05,58,7.30
2012,06,24,05,59,7.30
2012,06,24,06,00,7.30
2012,06,24,06,01,7.40
2012,06,24,06,02,7.40
2012,06,24,06,03,7.50
2012,06,24,06,04,7.50
2012,06,24,06,05,7.60
2012,06,24,06,06,7.60
2012,06,24,06,07,7.60
2012,06,24,06,08,7.70
2012,06,24,06,09,7.70
2012,06,24,06,10,7.80
2012,06,24,06,11,7.80
2012,06,24,06,12,7.90
2012,06,24,06,13,7.90
2012,06,24,06,14,7.90
2012,06,24,06,15,8.00
2012,06,24,06,16,8.00
2012,06,24,06,17,8.10
2012,06,24,06,18,8.10
2012,06,24,06,19,8.10
2012,06,24,06,20,8.10
2012,06,24,06,21,8.20
2012,06,24,06,22,8.20
2012,06,24,06,23,8.20
2012,06,24,06,24,8.20
2012,06,24,06,25,8.20
2012,06,24,06,26,8.20
2012,06,24,06,27,8.30
2012,06,24,06,28,8.30
2012,06,24,06,29,8.30
2012,06,24,06,30,8.30
2012,06,24,06,31,8.30
2012,06,24,06,32,8.30
2012,06,24,06,33,8.30
2012,06,24,06,34,8.40
2012,06,24,06,35,8.40
2012,06,24,06,36,8.50
2012,06,24,06,37,8.60
2012,06,24,06,38,8.60
2012,06,24,06,39,8.60
2012,06,24,06,40,8.70
2012,06,24,06,41,8.70
2012,06,24,06,42,8.80
2012,06,24,06,43,8.80
2012,06,24,06,44,8.90
2012,06,24,06,45,8.90
2012,06,24,06,46,9.00
2012,06,24,06,47,9.00
2012,06,24,06,48,9.10
2012,06,24,06,49,9.10
2012,06,24,06,50,9.10
2012,06,24,06,51,9.10
2012,06,24,06,52,9.10
2012,06,24,06,53,9.20
2012,06,24,06,54,9.20
2012,06,24,06,55,9.20
2012,06,24,06,56,9.20
2012,06,24,06,57,9.30
2012,06,24,06,58,9.30
2012,06,24,06,59,9.30
2012,06,24,07,00,9.30
2012,06,24,07,01,9.40
2012,06,24,07,02,9.40
2012,06,24,07,03,9.50
2012,06,24,07,04,9.60
2012,06,24,07,05,9.60
2012,06,24,07,06,9.70
2012,06,24,07,07,9.80
2012,06,24,07,08,9.90
2012,06,24,07,09,10.00
2012,06,24,07,10,10.10
2012,06,24,07,11,10.20
2012,06,24,07,12,10.20
2012,06,24,07,13,10.30
2012,06,24,07,14,10.30
2012,06,24,07,15,10.40
2012,06,24,07,16,10.40
2012,06,24,07,17,10.50
2012,06,24,07,18,10.50
2012,06,24,07,19,10.50
2012,06,24,07,20,10.50
2012,06,24,07,21,10.60
2012,06,24,07,22,10.60
2012,06,24,07,23,10.60
2012,06,24,07,24,10.60
2012,06,24,07,25,10.60
2012,06,24,07,26,10.60
2012,06,24,07,27,10.60
2012,06,24,07,28,10.60
2012,06,24,07,29,10.60
2012,06,24,07,30,10.60
2012,06,24,07,31,10.50
2012,06,24,07,32,10.50
2012,06,24,07,33,10.50
2012,06,24,07,34,10.50
2012,06,24,07,35,10.50
2012,06,24,07,36,10.50
2012,06,24,07,37,10.50
2012,06,24,07,38,10.50
2012,06,24,07,39,10.50
2012,06,24,07,40,10.50
2012,06,24,07,41,10.50
2012,06,24,07,42,10.60
2012,06,24,07,43,10.60
2012,06,24,07,44,10.60
2012,06,24,07,45,10.50
2012,06,24,07,46,10.50
2012,06,24,07,47,10.50
2012,06,24,07,48,10.50
2012,06,24,07,49,10.50
2012,06,24,07,50,10.50
2012,06,24,07,51,10.50
2012,06,24,07,52,10.60
2012,06,24,07,53,10.60
2012,06,24,07,54,10.60
2012,06,24,07,55,10.60
2012,06,24,07,56,10.60
2012,06,24,07,57,10.60
2012,06,24,07,58,10.70
2012,06,24,07,59,10.70
2012,06,24,08,00,10.70
2012,06,24,08,01,10.70
2012,06,24,08,02,10.70
2012,06,24,08,03,10.80
2012,06,24,08,04,10.80
2012,06,24,08,05,10.80
2012,06,24,08,06,10.90
2012,06,24,08,07,10.90
2012,06,24,08,08,11.00
2012,06,24,08,09,11.10
2012,06,24,08,10,11.10
2012,06,24,08,11,11.20
2012,06,24,08,12,11.20
2012,06,24,08,13,11.20
2012,06,24,08,14,11.20
2012,06,24,08,15,11.20
2012,06,24,08,16,11.20
2012,06,24,08,17,11.20
2012,06,24,08,18,11.20
2012,06,24,08,19,11.20
2012,06,24,08,20,11.20
2012,06,24,08,21,11.20
2012,06,24,08,22,11.20
2012,06,24,08,23,11.20
2012,06,24,08,24,11.20
2012,06,24,08,25,11.30
2012,06,24,08,26,11.30
2012,06,24,08,27,11.30
2012,06,24,08,28,11.30
2012,06,24,08,29,11.30
2012,06,24,08,30,11.40
2012,06,24,08,31,11.40
2012,06,24,08,32,11.40
2012,06,24,08,33,11.50
2012,06,24,08,34,11.50
2012,06,24,08,35,11.50
2012,06,24,08,36,11.60
2012,06,24,08,37,11.60
2012,06,24,08,38,11.60
2012,06,24,08,39,11.60
2012,06,24,08,40,11.60
2012,06,24,08,41,11.70
2012,06,24,08,42,11.70
2012,06,24,08,43,11.70
2012,06,24,08,44,11.70
2012,06,24,08,45,11.70
2012,06,24,08,46,11.70
2012,06,24,08,47,11.70
2012,06,24,08,48,11.70
2012,06,24,08,49,11.70
2012,06,24,08,50,11.80
2012,06,24,08,51,11.80
2012,06,24,08,52,11.80
2012,06,24,08,53,11.80
2012,06,24,08,54,11.80
2012,06,24,08,55,11.90
2012,06,24,08,56,11.90
2012,06,24,08,57,11.90
2012,06,24,08,58,12.00
2012,06,24,08,59,12.00
2012,06,24,09,00,12.00
2012,06,24,09,01,12.10
2012,06,24,09,02,12.20
2012,06,24,09,03,12.20
2012,06,24,09,04,12.30
2012,06,24,09,05,12.30
2012,06,24,09,06,12.30
2012,06,24,09,07,12.20
2012,06,24,09,08,12.20
2012,06,24,09,09,12.10
2012,06,24,09,10,12.10
2012,06,24,09,11,12.10
2012,06,24,09,12,12.10
2012,06,24,09,13,12.10
2012,06,24,09,14,12.20
2012,06,24,09,15,12.30
2012,06,24,09,16,12.30
2012,06,24,09,17,12.30
2012,06,24,09,18,12.40
2012,06,24,09,19,12.40
2012,06,24,09,20,12.50
2012,06,24,09,21,12.60
2012,06,24,09,22,12.60
2012,06,24,09,23,12.60
2012,06,24,09,24,12.70
2012,06,24,09,25,12.60
2012,06,24,09,26,12.60
2012,06,24,09,27,12.60
2012,06,24,09,28,12.70
2012,06,24,09,29,12.70
2012,06,24,09,30,12.70
2012,06,24,09,31,12.60
2012,06,24,09,32,12.60
2012,06,24,09,33,12.60
2012,06,24,09,34,12.70
2012,06,24,09,35,12.80
2012,06,24,09,36,12.80
2012,06,24,09,37,12.80
2012,06,24,09,38,12.80
2012,06,24,09,39,12.80
2012,06,24,09,40,12.90
2012,06,24,09,41,12.80
2012,06,24,09,42,12.80
2012,06,24,09,43,12.80
2012,06,24,09,44,12.80
2012,06,24,09,45,12.80
2012,06,24,09,46,12.80
2012,06,24,09,47,12.80
2012,06,24,09,48,12.80
2012,06,24,09,49,12.90
2012,06,24,09,50,12.90
2012,06,24,09,51,12.90
2012,06,24,09,52,13.00
2012,06,24,09,53,13.00
2012,06,24,09,54,13.00
2012,06,24,09,55,13.00
2012,06,24,09,56,12.90
2012,06,24,09,57,12.90
2012,06,24,09,58,12.90
2012,06,24,09,59,12.90
2012,06,24,10,00,12.80
2012,06,24,10,01,12.90
2012,06,24,10,02,12.90
2012,06,24,10,03,12.90
2012,06,24,10,04,12.90
2012,06,24,10,05,12.90
2012,06,24,10,06,12.90
2012,06,24,10,07,12.90
2012,06,24,10,08,12.90
2012,06,24,10,09,12.90
2012,06,24,10,10,12.90
2012,06,24,10,11,13.00
2012,06,24,10,12,13.00
2012,06,24,10,13,13.10
2012,06,24,10,14,13.10
2012,06,24,10,15,13.00
2012,06,24,10,16,12.90
2012,06,24,10,17,12.90
2012,06,24,10,18,12.80
2012,06,24,10,19,12.80
2012,06,24,10,20,12.80
2012,06,24,10,21,12.80
2012,06,24,10,22,12.80
2012,06,24,10,23,12.80
2012,06,24,10,24,12.80
2012,06,24,10,25,12.80
2012,06,24,10,26,12.90
2012,06,24,10,27,13.00
2012,06,24,10,28,13.00
2012,06,24,10,29,13.10
2012,06,24,10,30,13.10
2012,06,24,10,31,13.10
2012,06,24,10,32,13.10
2012,06,24,10,33,13.10
2012,06,24,10,34,13.20
2012,06,24,10,35,13.20
2012,06,24,10,36,13.20
2012,06,24,10,37,13.30
2012,06,24,10,38,13.40
2012,06,24,10,39,13.50
2012,06,24,10,40,13.60
2012,06,24,10,41,13.70
2012,06,24,10,42,13.80
2012,06,24,10,43,13.80
2012,06,24,10,44,13.80
2012,06,24,10,45,13.80
2012,06,24,10,46,13.90
2012,06,24,10,47,14.00
2012,06,24,10,48,14.00
2012,06,24,10,49,14.10
2012,06,24,10,50,14.20
2012,06,24,10,51,14.30
2012,06,24,10,52,14.40
2012,06,24,10,53,14.60
2012,06,24,10,54,14.70
2012,06,24,10,55,14.80
2012,06,24,10,56,14.80
2012,06,24,10,57,14.80
2012,06,24,10,58,14.80
2012,06,24,10,59,14.80
2012,06,24,11,00,14.70
2012,06,24,11,01,14.60
2012,06,24,11,02,14.40
2012,06,24,11,03,14.30
2012,06,24,11,04,14.20
2012,06,24,11,05,14.20
2012,06,24,11,06,14.20
2012,06,24,11,07,14.20
2012,06,24,11,08,14.30
2012,06,24,11,09,14.30
2012,06,24,11,10,14.30
2012,06,24,11,11,14.30
2012,06,24,11,12,14.30
2012,06,24,11,13,14.30
2012,06,24,11,14,14.30
2012,06,24,11,15,14.30
2012,06,24,11,16,14.10
2012,06,24,11,17,14.00
2012,06,24,11,18,13.90
2012,06,24,11,19,13.80
2012,06,24,11,20,13.70
2012,06,24,11,21,13.70
2012,06,24,11,22,13.70
2012,06,24,11,23,13.70
2012,06,24,11,24,13.70
2012,06,24,11,25,13.70
2012,06,24,11,26,13.70
2012,06,24,11,27,13.70
2012,06,24,11,28,13.60
2012,06,24,11,29,13.50
2012,06,24,11,30,13.40
2012,06,24,11,31,13.40
2012,06,24,11,32,13.50
2012,06,24,11,33,13.50
2012,06,24,11,34,13.50
2012,06,24,11,35,13.50
2012,06,24,11,36,13.40
2012,06,24,11,37,13.50
2012,06,24,11,38,13.50
2012,06,24,11,39,13.50
2012,06,24,11,40,13.40
2012,06,24,11,41,13.40
2012,06,24,11,42,13.40
2012,06,24,11,43,13.30
2012,06,24,11,44,13.20
2012,06,24,11,45,13.20
2012,06,24,11,46,13.20
2012,06,24,11,47,13.20
2012,06,24,11,48,13.30
2012,06,24,11,49,13.30
2012,06,24,11,50,13.40
2012,06,24,11,51,13.50
2012,06,24,11,52,13.70
2012,06,24,11,53,13.90
2012,06,24,11,54,14.00
2012,06,24,11,55,14.10
2012,06,24,11,56,14.20
2012,06,24,11,57,14.30
2012,06,24,11,58,14.40
2012,06,24,11,59,14.50
2012,06,24,12,00,14.70
2012,06,24,12,01,14.80
2012,06,24,12,02,15.00
2012,06,24,12,03,15.00
2012,06,24,12,04,15.00
2012,06,24,12,05,15.00
2012,06,24,12,06,15.00
2012,06,24,12,07,15.00
2012,06,24,12,08,15.10
2012,06,24,12,09,15.20
2012,06,24,12,10,15.30
2012,06,24,12,11,15.40
2012,06,24,12,12,15.40
2012,06,24,12,13,15.30
2012,06,24,12,14,15.20
2012,06,24,12,15,15.10
2012,06,24,12,16,15.00
2012,06,24,12,17,15.00
2012,06,24,12,18,14.90
2012,06,24,12,19,14.90
2012,06,24,12,20,14.80
2012,06,24,12,21,14.70
2012,06,24,12,22,14.70
2012,06,24,12,23,14.70
2012,06,24,12,24,14.70
2012,06,24,12,25,14.60
2012,06,24,12,26,14.60
2012,06,24,12,27,14.50
2012,06,24,12,28,14.50
2012,06,24,12,29,14.60
2012,06,24,12,30,14.80
2012,06,24,12,31,15.00
2012,06,24,12,32,15.00
2012,06,24,12,33,15.10
2012,06,24,12,34,15.30
2012,06,24,12,35,15.40
2012,06,24,12,36,15.50
2012,06,24,12,37,15.60
2012,06,24,12,38,15.70
2012,06,24,12,39,15.80
2012,06,24,12,40,15.90
2012,06,24,12,41,15.90
2012,06,24,12,42,16.00
2012,06,24,12,43,15.70
2012,06,24,12,44,15.60
2012,06,24,12,45,15.40
2012,06,24,12,46,15.30
2012,06,24,12,47,15.20
2012,06,24,12,48,15.20
2012,06,24,12,49,15.20
2012,06,24,12,50,15.30
2012,06,24,12,51,15.30
2012,06,24,12,52,15.20
2012,06,24,12,53,15.30
2012,06,24,12,54,15.40
2012,06,24,12,55,15.50
2012,06,24,12,56,15.70
2012,06,24,12,57,15.80
2012,06,24,12,58,15.80
2012,06,24,12,59,15.90
2012,06,24,13,00,16.00
2012,06,24,13,01,16.10
2012,06,24,13,02,16.00
2012,06,24,13,03,15.90
2012,06,24,13,04,15.90
2012,06,24,13,05,15.90
2012,06,24,13,06,15.80
2012,06,24,13,07,15.80
2012,06,24,13,08,16.00
2012,06,24,13,09,16.10
2012,06,24,13,10,16.20
2012,06,24,13,11,16.30
2012,06,24,13,12,16.30
2012,06,24,13,13,16.30
2012,06,24,13,14,16.40
2012,06,24,13,15,16.50
2012,06,24,13,16,16.50
2012,06,24,13,17,16.50
2012,06,24,13,18,16.40
2012,06,24,13,19,16.20
2012,06,24,13,20,16.10
2012,06,24,13,21,16.10
2012,06,24,13,22,16.10
2012,06,24,13,23,16.20
2012,06,24,13,24,16.20
2012,06,24,13,25,16.30
2012,06,24,13,26,16.30
2012,06,24,13,27,16.40
2012,06,24,13,28,16.50
2012,06,24,13,29,16.60
2012,06,24,13,30,16.60
2012,06,24,13,31,16.60
2012,06,24,13,32,16.70
2012,06,24,13,33,16.80
2012,06,24,13,34,16.80
2012,06,24,13,35,16.90
2012,06,24,13,36,16.80
2012,06,24,13,37,16.60
2012,06,24,13,38,16.40
2012,06,24,13,39,16.20
2012,06,24,13,40,16.10
2012,06,24,13,41,16.00
2012,06,24,13,42,16.00
2012,06,24,13,43,15.90
2012,06,24,13,44,15.90
2012,06,24,13,45,15.90
2012,06,24,13,46,15.80
2012,06,24,13,47,15.80
2012,06,24,13,48,15.80
2012,06,24,13,49,15.80
2012,06,24,13,50,15.80
2012,06,24,13,51,15.80
2012,06,24,13,52,15.90
2012,06,24,13,53,16.00
2012,06,24,13,54,16.10
2012,06,24,13,55,16.20
2012,06,24,13,56,16.20
2012,06,24,13,57,16.10
2012,06,24,13,58,16.20
2012,06,24,13,59,16.20
2012,06,24,14,00,16.10
2012,06,24,14,01,16.10
2012,06,24,14,02,16.10
2012,06,24,14,03,16.20
2012,06,24,14,04,16.30
2012,06,24,14,05,16.30
2012,06,24,14,06,16.40
2012,06,24,14,07,16.50
2012,06,24,14,08,16.50
2012,06,24,14,09,16.50
2012,06,24,14,10,16.60
2012,06,24,14,11,16.70
2012,06,24,14,12,16.70
2012,06,24,14,13,16.70
2012,06,24,14,14,16.80
2012,06,24,14,15,17.00
2012,06,24,14,16,17.10
2012,06,24,14,17,17.30
2012,06,24,14,18,17.50
2012,06,24,14,19,17.60
2012,06,24,14,20,17.60
2012,06,24,14,21,17.70
2012,06,24,14,22,17.80
2012,06,24,14,23,17.90
2012,06,24,14,24,18.00
2012,06,24,14,25,18.10
2012,06,24,14,26,18.20
2012,06,24,14,27,18.30
2012,06,24,14,28,18.40
2012,06,24,14,29,18.30
2012,06,24,14,30,18.10
2012,06,24,14,31,17.80
2012,06,24,14,32,17.60
2012,06,24,14,33,17.40
2012,06,24,14,34,17.30
2012,06,24,14,35,17.30
2012,06,24,14,36,17.30
2012,06,24,14,37,17.30
2012,06,24,14,38,17.30
2012,06,24,14,39,17.40
2012,06,24,14,40,17.40
2012,06,24,14,41,17.40
2012,06,24,14,42,17.60
2012,06,24,14,43,17.70
2012,06,24,14,44,17.70
2012,06,24,14,45,17.80
2012,06,24,14,46,17.80
2012,06,24,14,47,17.90
2012,06,24,14,48,17.90
2012,06,24,14,49,18.00
2012,06,24,14,50,18.00
2012,06,24,14,51,18.10
2012,06,24,14,52,18.10
2012,06,24,14,53,18.00
2012,06,24,14,54,18.00
2012,06,24,14,55,18.00
2012,06,24,14,56,18.10
2012,06,24,14,57,17.90
2012,06,24,14,58,17.80
2012,06,24,14,59,17.70
2012,06,24,15,00,17.60
2012,06,24,15,01,17.60
2012,06,24,15,02,17.60
2012,06,24,15,03,17.50
2012,06,24,15,04,17.50
2012,06,24,15,05,17.40
2012,06,24,15,06,17.40
2012,06,24,15,07,17.50
2012,06,24,15,08,17.60
2012,06,24,15,09,17.70
2012,06,24,15,10,17.70
2012,06,24,15,11,17.80
2012,06,24,15,12,18.00
2012,06,24,15,13,18.10
2012,06,24,15,14,18.20
2012,06,24,15,15,18.30
2012,06,24,15,16,18.30
2012,06,24,15,17,18.40
2012,06,24,15,18,18.60
2012,06,24,15,19,18.60
2012,06,24,15,20,18.70
2012,06,24,15,21,18.60
2012,06,24,15,22,18.50
2012,06,24,15,23,18.50
2012,06,24,15,24,18.50
2012,06,24,15,25,18.40
2012,06,24,15,26,18.30
2012,06,24,15,27,18.30
2012,06,24,15,28,18.30
2012,06,24,15,29,18.30
2012,06,24,15,30,18.30
2012,06,24,15,31,18.30
2012,06,24,15,32,18.30
2012,06,24,15,33,18.30
2012,06,24,15,34,18.30
2012,06,24,15,35,18.40
2012,06,24,15,36,18.50
2012,06,24,15,37,18.40
2012,06,24,15,38,18.20
2012,06,24,15,39,18.20
2012,06,24,15,40,18.20
2012,06,24,15,41,18.20
2012,06,24,15,42,18.30
2012,06,24,15,43,18.40
2012,06,24,15,44,18.40
2012,06,24,15,45,18.50
2012,06,24,15,46,18.60
2012,06,24,15,47,18.60
2012,06,24,15,48,18.70
2012,06,24,15,49,18.70
2012,06,24,15,50,18.70
2012,06,24,15,51,18.70
2012,06,24,15,52,18.80
2012,06,24,15,53,18.70
2012,06,24,15,54,18.70
2012,06,24,15,55,18.70
2012,06,24,15,56,18.70
2012,06,24,15,57,18.70
2012,06,24,15,58,18.70
2012,06,24,15,59,18.70
2012,06,24,16,00,18.70
2012,06,24,16,01,18.60
2012,06,24,16,02,18.60
2012,06,24,16,03,18.50
2012,06,24,16,04,18.30
2012,06,24,16,05,18.20
2012,06,24,16,06,18.10
2012,06,24,16,07,18.10
2012,06,24,16,08,18.10
2012,06,24,16,09,18.10
2012,06,24,16,10,18.10
2012,06,24,16,11,18.10
2012,06,24,16,12,18.10
2012,06,24,16,13,18.20
2012,06,24,16,14,18.20
2012,06,24,16,15,18.20
2012,06,24,16,16,18.30
2012,06,24,16,17,18.20
2012,06,24,16,18,18.20
2012,06,24,16,19,18.20
2012,06,24,16,20,18.20
2012,06,24,16,21,18.20
2012,06,24,16,22,18.10
2012,06,24,16,23,18.00
2012,06,24,16,24,18.00
2012,06,24,16,25,18.00
2012,06,24,16,26,17.90
2012,06,24,16,27,17.90
2012,06,24,16,28,17.80
2012,06,24,16,29,17.80
2012,06,24,16,30,17.80
2012,06,24,16,31,17.80
2012,06,24,16,32,17.90
2012,06,24,16,33,18.00
2012,06,24,16,34,18.00
2012,06,24,16,35,18.10
2012,06,24,16,36,18.10
2012,06,24,16,37,18.20
2012,06,24,16,38,18.20
2012,06,24,16,39,18.30
2012,06,24,16,40,18.30
2012,06,24,16,41,18.30
2012,06,24,16,42,18.40
2012,06,24,16,43,18.50
2012,06,24,16,44,18.60
2012,06,24,16,45,18.70
2012,06,24,16,46,18.60
2012,06,24,16,47,18.60
2012,06,24,16,48,18.60
2012,06,24,16,49,18.70
2012,06,24,16,50,18.70
2012,06,24,16,51,18.80
2012,06,24,16,52,18.80
2012,06,24,16,53,18.80
2012,06,24,16,54,18.80
2012,06,24,16,55,18.90
2012,06,24,16,56,18.80
2012,06,24,16,57,18.70
2012,06,24,16,58,18.60
2012,06,24,16,59,18.50
2012,06,24,17,00,18.50
2012,06,24,17,01,18.40
2012,06,24,17,02,18.40
2012,06,24,17,03,18.30
2012,06,24,17,04,18.10
2012,06,24,17,05,17.90
2012,06,24,17,06,17.80
2012,06,24,17,07,17.80
2012,06,24,17,08,17.70
2012,06,24,17,09,17.70
2012,06,24,17,10,17.70
2012,06,24,17,11,17.70
2012,06,24,17,12,17.60
2012,06,24,17,13,17.60
2012,06,24,17,14,17.50
2012,06,24,17,15,17.50
2012,06,24,17,16,17.50
2012,06,24,17,17,17.40
2012,06,24,17,18,17.40
2012,06,24,17,19,17.40
2012,06,24,17,20,17.40
2012,06,24,17,21,17.40
2012,06,24,17,22,17.40
2012,06,24,17,23,17.30
2012,06,24,17,24,17.30
2012,06,24,17,25,17.30
2012,06,24,17,26,17.30
2012,06,24,17,27,17.20
2012,06,24,17,28,17.20
2012,06,24,17,29,17.20
2012,06,24,17,30,17.20
2012,06,24,17,31,17.20
2012,06,24,17,32,17.10
2012,06,24,17,33,17.10
2012,06,24,17,34,17.10
2012,06,24,17,35,17.00
2012,06,24,17,36,16.90
2012,06,24,17,37,16.80
2012,06,24,17,38,16.70
2012,06,24,17,39,16.70
2012,06,24,17,40,16.70